SAUDISAT 5A (43831 NORAD) Tracking and Keplerian Element Data

This shows tracking and keplerian element data for the satellite.

Feedback or suggestion? Click here.




ElementValue
Catalog43831
NameSAUDISAT 5A
Epoch Orbit3364
Epoch Day199.40401799
Epoch Year2019
RAAN274.7042
Inclination97.6046
Eccentricity0.0013447
Argument of Perigee217.6515
Mean Anonmoly206.0914
Mean Motion15.07902678
Decay Rate-5E-07
L11 43831U 18102A 19199.40401799 -.00000050 00000-0 85200-6 0 9991
L22 43831 97.6046 274.7042 0013447 217.6515 206.0914 15.07902678 33648

Live tracking and technical data element details for SAUDISAT 5A (NORAD 43831). SAUDISAT 5A can be tracked NOW for your location showing map with azimuth and elevation plus other details from your city location.

Track the satellite on the map from your city or location and see movement details for azimuth, elevation, latitude, longitude, range, height, and movement on the map or in text.







IsCatalogInMostPopularTable: catalog: 43831, numindb: 83
Update: records affected: 1



GetName: 43831 SAUDISAT 5A

Hit Count: updated at: Sat, 20 Jul 2019 00:00:56 GMT